{"data":{"norad_id":65097,"epoch":"2026-09-20T02:14:51.978624Z","epoch_age_seconds":155273,"freshness":"FRESH","line1":"1 65097U 25167V   26263.09365716  .00028581  00000+0  85363-3 0  9995","line2":"2 65097  53.1579 195.8772 0000590  75.3245 284.7823 15.34406567 63350","mean_motion":15.34406567,"eccentricity":5.9e-5,"inclination_deg":53.1579,"raan_deg":195.8772,"arg_perigee_deg":75.3245,"mean_anomaly_deg":284.7823,"bstar":0.00085363,"rev_number":6335,"period_min":93.847356428839,"perigee_km":462.2801133462,"apogee_km":463.08733019137,"semimajor_km":6840.8207217688,"source":"CELESTRAK","updated_at":"2026-09-21T09:00:35.524954Z"}}